FW2178 Weather Reports


Display with metric or nautical units.
time (UTC)temp
F
wind
direction
speed
MPH
gust
MPH
rain 1hr
in
rain 24hr
in
rain mn
in
humidity
%
barometer
mb
20260831181826 0 0.0 0.0 0.00 0.00 0.00
20260831181030 0 0.0 0.0 0.00 0.00 0.00
20260831180531 0 0.0 0.0 0.00 0.00 0.00
20260831180356 0 0.0 0.0 0.00 0.00 0.00
20260831175532 0 0.0 0.0 0.00 0.00 0.00
20260831175032 0 0.0 0.0 0.00 0.00 0.00
20260831174532 0 0.0 0.0 0.00 0.00 0.00
20260831174030 0 0.0 0.0 0.00 0.00 0.00
20260831173530 0 0.0 0.0 0.00 0.00 0.00
20260831173030 0 0.0 0.0 0.00 0.00 0.00
20260831172556 0 0.0 0.0 0.00 0.00 0.00
20260831172546 0 0.0 0.0 0.00 0.00 0.00
20260831171530 0 0.0 0.0 0.00 0.00 0.00
20260831171030 0 0.0 0.0 0.00 0.00 0.00
20260831170531 0 0.0 0.0 0.00 0.00 0.00
20260831170030 0 0.0 0.0 0.00 0.00 0.00
20260831165818 0 0.0 0.0 0.00 0.00 0.00
20260831165236 0 0.0 0.0 0.00 0.00 0.00
20260831164030 59 154 0.0 3.0 0.00 0.00 0.00 86 1012.2
20260831163758 59 146 0.0 4.0 0.00 0.00 0.00 85 1012.2
20260831163031 59 155 0.0 4.0 0.00 0.00 0.00 86 1011.9
20260831162528 58 140 0.0 0.0 0.00 0.00 0.00 86 1012.1
20260831162324 58 125 0.0 0.0 0.00 0.00 0.00 90 1012.0
20260831161529 57 125 0.0 3.0 0.00 0.00 0.00 92 1012.1
20260831161028 56 115 0.0 3.0 0.00 0.00 0.00 97 1012.3
20260831160529 56 140 0.0 3.0 0.00 0.00 0.00 99 1012.2
20260831160029 56 136 0.0 0.0 0.00 0.00 0.00 99 1012.4
20260831155823 56 133 0.0 0.0 0.00 0.00 0.00 99 1012.1
20260831155029 55 133 0.0 0.0 0.00 0.00 0.00 99 1012.3
20260831154529 55 133 0.0 0.0 0.00 0.00 0.00 99 1012.4
20260831154028 55 133 0.0 0.0 0.00 0.00 0.00 99 1012.3
20260831153529 55 133 0.0 0.0 0.00 0.00 0.00 99 1012.4
20260831153029 55 133 0.0 0.0 0.00 0.00 0.00 99 1012.5
20260831152534 55 132 0.0 0.0 0.00 0.00 0.00 99 1012.6
20260831152033 54 132 0.0 0.0 0.00 0.00 0.00 99 1012.5
20260831151528 54 132 0.0 0.0 0.00 0.00 0.00 99 1012.5
20260831151028 54 132 0.0 0.0 0.00 0.00 0.00 99 1012.6
20260831150528 54 132 0.0 0.0 0.00 0.00 0.00 99 1012.6
20260831150056 53 132 0.0 0.0 0.00 0.00 0.00 99 1012.8
20260831145529 53 132 0.0 0.0 0.00 0.00 0.00 99 1012.3
20260831145029 53 132 0.0 0.0 0.00 0.00 0.00 99 1012.6
20260831144529 53 132 0.0 0.0 0.00 0.00 0.00 99 1012.8
20260831144030 53 132 0.0 0.0 0.00 0.00 0.00 99 1012.4
20260831143526 53 132 0.0 0.0 0.00 0.00 0.00 99 1012.5
20260831143023 53 132 0.0 0.0 0.00 0.00 0.00 99 1012.5
20260831142525 53 132 0.0 0.0 0.00 0.00 0.00 99 1012.4
20260831142023 53 132 0.0 0.0 0.00 0.00 0.00 99 1012.6
20260831141811 53 132 0.0 0.0 0.00 0.00 0.00 99 1012.4
20260831141024 52 132 0.0 0.0 0.00 0.00 0.00 99 1012.3
20260831140525 52 132 0.0 0.0 0.00 0.00 0.00 99 1012.5
20260831140023 52 132 0.0 0.0 0.00 0.00 0.00 99 1012.4
20260831135814 53 132 0.0 0.0 0.00 0.00 0.00 99 1012.5
20260831135023 52 132 0.0 0.0 0.00 0.00 0.00 99 1012.5
20260831134526 52 132 0.0 0.0 0.00 0.00 0.00 99 1012.6
20260831134024 52 132 0.0 0.0 0.00 0.00 0.00 99 1012.3
20260831133524 52 132 0.0 0.0 0.00 0.00 0.00 99 1012.4
20260831133023 52 132 0.0 0.0 0.00 0.00 0.00 99 1012.2
20260831132810 52 132 0.0 0.0 0.00 0.00 0.00 99 1012.3
20260831132309 52 132 0.0 0.0 0.00 0.00 0.00 99 1012.4
20260831131524 52 132 0.0 0.0 0.00 0.00 0.00 99 1012.1
20260831131024 52 132 0.0 0.0 0.00 0.00 0.00 99 1012.3
20260831130525 52 132 0.0 0.0 0.00 0.00 0.00 99 1012.4
20260831130322 52 132 0.0 0.0 0.00 0.00 0.00 99 1012.6
20260831125525 52 132 0.0 0.0 0.00 0.00 0.00 99 1012.6
20260831125025 52 132 0.0 0.0 0.00 0.00 0.00 99 1012.5
20260831124525 52 132 0.0 0.0 0.00 0.00 0.00 99 1012.4
20260831124024 52 132 0.0 0.0 0.00 0.00 0.00 99 1012.6
20260831123817 52 132 0.0 0.0 0.00 0.00 0.00 99 1012.7
20260831123024 52 132 0.0 0.0 0.00 0.00 0.00 99 1012.7
20260831122814 52 132 0.0 0.0 0.00 0.00 0.00 99 1012.6
20260831122023 52 132 0.0 0.0 0.00 0.00 0.00 99 1012.8
20260831121525 52 132 0.0 0.0 0.00 0.00 0.00 99 1012.8
20260831121023 52 132 0.0 0.0 0.00 0.00 0.00 99 1012.7
20260831120823 52 132 0.0 0.0 0.00 0.00 0.00 99 1012.7
20260831120024 53 132 0.0 0.0 0.00 0.00 0.00 99 1013.0
20260831115526 53 132 0.0 0.0 0.00 0.00 0.00 99 1012.7
20260831115310 53 132 0.0 0.0 0.00 0.00 0.00 99 1013.0
20260831114524 53 132 0.0 0.0 0.00 0.00 0.00 99 1013.0
20260831114025 53 132 0.0 0.0 0.00 0.00 0.00 99 1013.0
20260831113525 53 132 0.0 0.0 0.00 0.00 0.00 99 1012.9
20260831113024 53 132 0.0 0.0 0.00 0.00 0.00 99 1013.0
20260831112816 53 132 0.0 0.0 0.00 0.00 0.00 99 1013.2
20260831112025 53 132 0.0 0.0 0.00 0.00 0.00 99 1013.2
20260831111525 53 132 0.0 0.0 0.00 0.00 0.00 99 1013.2
20260831111024 53 132 0.0 0.0 0.00 0.00 0.00 98 1013.2
20260831110524 53 132 0.0 0.0 0.00 0.00 0.00 98 1013.4
20260831110024 53 132 0.0 0.0 0.00 0.00 0.00 98 1013.2
20260831105525 53 132 0.0 0.0 0.00 0.00 0.00 98 1013.2
20260831105026 53 132 0.0 0.0 0.00 0.00 0.00 98 1013.2
20260831104524 53 132 0.0 0.0 0.00 0.00 0.00 98 1013.3
20260831104315 53 132 0.0 0.0 0.00 0.00 0.00 98 1013.2
20260831103526 53 132 0.0 0.0 0.00 0.00 0.00 98 1013.7
20260831103025 53 133 0.0 0.0 0.00 0.00 0.00 98 1013.4
20260831102528 53 133 0.0 0.0 0.00 0.00 0.00 98 1013.6
20260831102023 54 133 0.0 0.0 0.00 0.00 0.00 98 1013.5
20260831101525 53 133 0.0 0.0 0.00 0.00 0.00 98 1013.8
20260831101023 53 133 0.0 0.0 0.00 0.00 0.00 98 1013.7
20260831100529 54 133 0.0 0.0 0.00 0.00 0.00 98 1013.6
20260831100029 54 133 0.0 0.0 0.00 0.00 0.00 98 1013.8
20260831095529 54 133 0.0 0.0 0.00 0.00 0.00 97 1014.1
20260831095023 54 133 0.0 0.0 0.00 0.00 0.00 97 1014.0
20260831094524 54 133 0.0 0.0 0.00 0.00 0.00 97 1014.0
20260831094026 53 133 0.0 0.0 0.00 0.00 0.00 97 1013.9
20260831093523 54 133 0.0 0.0 0.00 0.00 0.00 97 1014.2
20260831093027 54 133 0.0 0.0 0.00 0.00 0.00 97 1014.2
20260831092525 54 133 0.0 0.0 0.00 0.00 0.00 97 1014.4
20260831092309 54 133 0.0 0.0 0.00 0.00 0.00 96 1014.3
20260831091526 54 133 0.0 0.0 0.00 0.00 0.00 96 1014.4
20260831091025 54 133 0.0 0.0 0.00 0.00 0.00 96 1014.2
20260831090523 54 133 0.0 0.0 0.00 0.00 0.00 96 1014.3
20260831090313 54 133 0.0 0.0 0.00 0.00 0.00 95 1014.4
20260831085812 54 133 0.0 0.0 0.00 0.00 0.00 95 1014.6
20260831085024 54 133 0.0 0.0 0.00 0.00 0.00 95 1014.4
20260831084525 54 133 0.0 0.0 0.00 0.00 0.00 95 1014.6
20260831084024 54 133 0.0 0.0 0.00 0.00 0.00 95 1014.5
20260831083525 54 133 0.0 0.0 0.00 0.00 0.00 94 1014.5
20260831083023 54 133 0.0 0.0 0.00 0.00 0.00 94 1014.8
20260831082524 54 133 0.0 0.0 0.00 0.00 0.00 94 1014.8
20260831082023 55 133 0.0 0.0 0.00 0.00 0.00 94 1014.9
20260831081818 54 133 0.0 0.0 0.00 0.00 0.00 94 1014.8
20260831081023 54 133 0.0 0.0 0.00 0.00 0.00 93 1014.8
20260831080525 54 133 0.0 0.0 0.00 0.00 0.00 93 1015.1
20260831080024 54 133 0.0 0.0 0.00 0.00 0.00 93 1014.8
20260831075524 54 133 0.0 0.0 0.00 0.00 0.00 93 1014.8
20260831075023 54 133 0.0 0.0 0.00 0.00 0.00 92 1015.1
20260831074525 54 133 0.0 0.0 0.00 0.00 0.00 92 1014.9
20260831074024 54 133 0.0 0.0 0.00 0.00 0.00 92 1014.9
20260831073525 55 133 0.0 0.0 0.00 0.00 0.00 92 1014.9
20260831073319 54 133 0.0 0.0 0.00 0.00 0.00 91 1014.9
20260831072524 55 133 0.0 0.0 0.00 0.00 0.00 91 1014.8
20260831072025 55 133 0.0 0.0 0.00 0.00 0.00 91 1014.9
20260831071525 55 133 0.0 0.0 0.00 0.00 0.00 90 1014.9
20260831071025 55 133 0.0 0.0 0.00 0.00 0.00 90 1015.0
20260831070818 55 133 0.0 0.0 0.00 0.00 0.00 90 1015.0
20260831070024 55 133 0.0 0.0 0.00 0.00 0.00 90 1015.2
20260831065525 55 133 0.0 0.0 0.00 0.00 0.00 90 1015.6
20260831065024 55 133 0.0 0.0 0.00 0.00 0.00 89 1015.2
20260831064525 55 133 0.0 0.0 0.00 0.00 0.00 89 1015.4
20260831064023 55 133 0.0 0.0 0.00 0.00 0.00 89 1015.6
20260831063525 55 133 0.0 0.0 0.00 0.00 0.00 89 1015.6
20260831063321 55 133 0.0 0.0 0.00 0.00 0.00 89 1015.4
20260831062524 56 133 0.0 0.0 0.00 0.00 0.00 88 1015.6
20260831062025 56 133 0.0 0.0 0.00 0.00 0.00 88 1015.4
20260831061525 56 133 0.0 0.0 0.00 0.00 0.00 88 1015.6
20260831061025 56 133 0.0 0.0 0.00 0.00 0.00 88 1015.7
20260831060524 56 133 0.0 0.0 0.00 0.00 0.00 87 1015.8
20260831060024 56 133 0.0 0.0 0.00 0.00 0.00 87 1015.9
20260831055813 56 133 0.0 0.0 0.00 0.00 0.00 87 1015.8
20260831055025 56 133 0.0 0.0 0.00 0.00 0.00 87 1016.0
20260831054525 56 133 0.0 0.0 0.00 0.00 0.00 86 1016.0
20260831054024 56 133 0.0 0.0 0.00 0.00 0.00 86 1016.1
20260831053525 56 133 0.0 0.0 0.00 0.00 0.00 86 1016.2
20260831053024 56 133 0.0 0.0 0.00 0.00 0.00 86 1016.2
20260831052524 56 133 0.0 0.0 0.00 0.00 0.00 86 1016.2
20260831052119 57 133 0.0 0.0 0.00 0.00 0.00 85 1016.3
20260831052053 57 133 0.0 0.0 0.00 0.00 0.00 85 1016.3
20260831051024 57 133 0.0 0.0 0.00 0.00 0.00 84 1016.4
20260831050524 57 133 0.0 0.0 0.00 0.00 0.00 84 1016.5
20260831050028 57 133 0.0 0.0 0.00 0.00 0.00 84 1016.4
20260831045528 57 133 0.0 0.0 0.00 0.00 0.00 83 1016.4
20260831045026 57 133 0.0 0.0 0.00 0.00 0.00 83 1016.3
20260831044525 57 133 0.0 0.0 0.00 0.00 0.00 83 1016.4
20260831044024 57 133 0.0 0.0 0.00 0.00 0.00 83 1016.3
20260831043524 58 133 0.0 0.0 0.00 0.00 0.00 83 1016.3
20260831043023 58 133 0.0 0.0 0.00 0.00 0.00 82 1016.4
20260831042525 58 133 0.0 0.0 0.00 0.00 0.00 82 1016.7
20260831042316 58 133 0.0 0.0 0.00 0.00 0.00 81 1016.2
20260831041525 58 133 0.0 0.0 0.00 0.00 0.00 82 1016.5
20260831041024 58 133 0.0 0.0 0.00 0.00 0.00 82 1016.4
20260831040525 58 133 0.0 0.0 0.00 0.00 0.00 81 1016.4
20260831040023 59 133 0.0 0.0 0.00 0.00 0.00 81 1016.4
20260831035525 59 133 0.0 0.0 0.00 0.00 0.00 81 1016.5
20260831035025 59 133 0.0 0.0 0.00 0.00 0.00 80 1016.6
20260831034524 59 133 0.0 0.0 0.00 0.00 0.00 79 1016.4
20260831034025 59 133 0.0 0.0 0.00 0.00 0.00 78 1016.5
20260831033811 59 133 0.0 0.0 0.00 0.00 0.00 79 1016.5
20260831033025 60 133 0.0 0.0 0.00 0.00 0.00 78 1016.6
20260831032524 60 133 0.0 0.0 0.00 0.00 0.00 77 1016.4
20260831032024 60 133 0.0 0.0 0.00 0.00 0.00 77 1016.3
20260831031525 60 133 0.0 0.0 0.00 0.00 0.00 76 1016.5
20260831031023 60 133 0.0 0.0 0.00 0.00 0.00 76 1016.5
20260831030524 61 133 0.0 0.0 0.00 0.00 0.00 75 1016.5
20260831030024 61 133 0.0 0.0 0.00 0.00 0.00 76 1016.4
20260831025527 61 133 0.0 2.0 0.00 0.00 0.00 76 1016.3
20260831025025 61 133 0.0 1.0 0.00 0.00 0.00 76 1016.5
20260831024815 62 133 0.0 0.0 0.00 0.00 0.00 74 1016.4
20260831024027 62 133 0.0 0.0 0.00 0.00 0.00 73 1016.4
20260831024021 62 133 0.0 0.0 0.00 0.00 0.00 74 1016.3
20260831023649 62 133 0.0 0.0 0.00 0.00 0.00 72 1016.5
20260831022024 63 133 0.0 0.0 0.00 0.00 0.00 74 1016.5
20260831021524 63 133 0.0 0.0 0.00 0.00 0.00 71 1016.4
20260831021025 64 133 0.0 0.0 0.00 0.00 0.00 72 1016.5
20260831020524 64 133 0.0 0.0 0.00 0.00 0.00 74 1016.6
20260831020332 64 133 0.0 0.0 0.00 0.00 0.00 68 1016.5
20260831015524 65 133 0.0 0.0 0.00 0.00 0.00 70 1016.5
20260831015023 65 133 0.0 0.0 0.00 0.00 0.00 69 1016.6
20260831014523 65 134 0.0 3.0 0.00 0.00 0.00 67 1016.4
20260831014023 66 133 0.0 6.0 0.00 0.00 0.00 70 1016.5
20260831013523 65 140 0.0 6.0 0.00 0.00 0.00 73 1016.7
20260831013023 66 140 0.0 1.0 0.00 0.00 0.00 72 1016.6
20260831012522 66 136 0.0 2.0 0.00 0.00 0.00 68 1016.7
20260831012023 67 125 0.0 2.0 0.00 0.00 0.00 64 1016.7
20260831011523 66 114 0.0 0.0 0.00 0.00 0.00 61 1016.6
20260831011022 66 129 0.0 1.0 0.00 0.00 0.00 63 1016.8
20260831010830 67 145 0.0 1.0 0.00 0.00 0.00 71 1016.9
20260831010022 67 135 0.0 1.0 0.00 0.00 0.00 71 1017.0
20260831005522 67 145 0.0 0.0 0.00 0.00 0.00 68 1016.9
20260831005019 67 150 0.0 0.0 0.00 0.00 0.00 59 1017.1
20260831004515 67 137 0.0 0.0 0.00 0.00 0.00 62 1017.0
20260831004015 67 137 0.0 3.0 0.00 0.00 0.00 67 1017.2
20260831003803 67 134 0.0 3.0 0.00 0.00 0.00 68 1017.1
20260831003302 67 149 0.0 7.0 0.00 0.00 0.00 62 1017.3
20260831002513 68 133 0.0 14.0 0.00 0.00 0.00 60 1017.2
20260831002012 68 131 0.0 14.0 0.00 0.00 0.00 61 1017.1
20260831001513 67 135 0.0 13.0 0.00 0.00 0.00 61 1017.1
20260831001303 67 130 0.0 9.0 0.00 0.00 0.00 61 1017.3
20260831000512 67 150 1.0 9.0 0.00 0.00 0.00 69 1017.0
20260831000010 68 139 0.0 1.0 0.00 0.00 0.00 64 1017.0
20260830235512 67 138 0.0 1.0 0.00 0.00 0.00 63 1017.0
20260830235017 67 157 0.0 0.0 0.00 0.00 0.00 64 1017.2
20260830234515 67 159 0.0 0.0 0.00 0.00 0.00 66 1017.3
20260830234011 67 183 0.0 7.0 0.00 0.00 0.00 65 1017.4
20260830233510 66 179 0.0 7.0 0.00 0.00 0.00 64 1017.3
20260830233009 67 180 0.0 4.0 0.00 0.00 0.00 64 1017.2
20260830232753 67 183 1.0 6.0 0.00 0.00 0.00 65 1017.4
20260830232002 67 133 0.0 6.0 0.00 0.00 0.00 62 1017.3
20260830231752 67 144 0.0 0.0 0.00 0.00 0.00 62 1017.4
20260830231005 67 113 0.0 0.0 0.00 0.00 0.00 68 1017.3
20260830230501 67 140 0.0 0.0 0.00 0.00 0.00 63 1017.3
20260830230001 67 141 0.0 0.0 0.00 0.00 0.00 62 1017.4
20260830225501 67 137 0.0 6.0 0.00 0.00 0.00 63 1017.3
20260830225258 67 138 0.0 6.0 0.00 0.00 0.00 61 1017.5
20260830224752 67 54 0.0 2.0 0.00 0.00 0.00 61 1017.6
20260830224000 67 153 0.0 4.0 0.00 0.00 0.00 62 1017.4
20260830223754 67 143 1.0 4.0 0.00 0.00 0.00 62 1017.5
20260830223003 68 188 0.0 4.0 0.00 0.00 0.00 68 1017.7
20260830222804 67 135 0.0 0.0 0.00 0.00 0.00 62 1017.7
20260830222001 67 100 0.0 0.0 0.00 0.00 0.00 66 1017.9
20260830221501 67 133 0.0 0.0 0.00 0.00 0.00 67 1017.8
20260830221000 67 155 0.0 0.0 0.00 0.00 0.00 67 1017.8
20260830220504 66 155 0.0 0.0 0.00 0.00 0.00 65 1017.8
20260830220001 67 155 0.0 7.0 0.00 0.00 0.00 72 1017.7
20260830215501 67 150 0.0 7.0 0.00 0.00 0.00 66 1017.8
20260830215000 67 146 0.0 3.0 0.00 0.00 0.00 62 1017.8
20260830214501 67 138 0.0 3.0 0.00 0.00 0.00 59 1017.8
20260830214001 67 143 0.0 11.0 0.00 0.00 0.00 61 1018.0
20260830213500 66 166 0.0 11.0 0.00 0.00 0.00 62 1018.1
20260830213001 67 3 0.0 4.0 0.00 0.00 0.00 62 1018.0
20260830212751 67 32 0.0 4.0 0.00 0.00 0.00 61 1018.1
20260830212001 67 142 0.0 6.0 0.00 0.00 0.00 62 1017.9
20260830211501 66 142 0.0 6.0 0.00 0.00 0.00 61 1018.1
20260830211002 66 147 0.0 3.0 0.00 0.00 0.00 69 1018.3
20260830210750 65 154 0.0 2.0 0.00 0.00 0.00 65 1018.3
20260830210258 65 153 0.0 2.0 0.00 0.00 0.00 64 1018.2
20260830205502 65 166 0.0 2.0 0.00 0.00 0.00 66 1018.3
20260830205001 65 138 0.0 0.0 0.00 0.00 0.00 69 1018.4
20260830204502 65 138 0.0 0.0 0.00 0.00 0.00 67 1018.3
20260830204245 66 138 0.0 0.0 0.00 0.00 0.00 66 1018.4
20260830203505 65 155 0.0 0.0 0.00 0.00 0.00 65 1018.4
20260830203002 65 139 0.0 0.0 0.00 0.00 0.00 70 1018.5
20260830202502 65 130 0.0 0.0 0.00 0.00 0.00 65 1018.4
20260830202006 64 41 0.0 2.0 0.00 0.00 0.00 69 1018.5
20260830201502 65 136 0.0 2.0 0.00 0.00 0.00 74 1018.2
20260830201000 65 145 0.0 3.0 0.00 0.00 0.00 71 1018.6
20260830200510 65 145 0.0 3.0 0.00 0.00 0.00 71 1018.5
20260830200001 65 91 0.0 7.0 0.00 0.00 0.00 65 1018.6
20260830195756 65 138 1.0 7.0 0.00 0.00 0.00 70 1018.7
20260830195005 64 46 0.0 1.0 0.00 0.00 0.00 65 1018.6
20260830194502 65 141 0.0 1.0 0.00 0.00 0.00 67 1018.7
20260830194002 65 136 0.0 1.0 0.00 0.00 0.00 66 1018.6
20260830193505 65 134 0.0 0.0 0.00 0.00 0.00 65 1018.6
20260830193002 65 144 0.0 0.0 0.00 0.00 0.00 66 1018.6
20260830192502 66 127 0.0 0.0 0.00 0.00 0.00 69 1018.6
20260830192259 65 92 0.0 0.0 0.00 0.00 0.00 67 1018.6
20260830191502 65 87 0.0 2.0 0.00 0.00 0.00 66 1018.8
20260830191001 65 57 0.0 2.0 0.00 0.00 0.00 63 1018.7
20260830190819 64 162 0.0 0.0 0.00 0.00 0.00 65 1018.8
20260830190000 64 163 0.0 0.0 0.00 0.00 0.00 67 1018.8
20260830185502 65 138 0.0 1.0 0.00 0.00 0.00 65 1018.9
20260830185003 65 129 0.0 1.0 0.00 0.00 0.00 66 1019.0
20260830184501 64 327 0.0 0.0 0.00 0.00 0.00 65 1018.8
20260830184358 64 154 0.0 1.0 0.00 0.00 0.00 67 1018.8
20260830184351 64 346 0.0 1.0 0.00 0.00 0.00 65 1018.9
20260830183004 63 147 0.0 0.0 0.00 0.00 0.00 68 1019.2
20260830182758 63 36 0.0 1.0 0.00 0.00 0.00 67 1019.1
20260830182000 63 121 0.0 1.0 0.00 0.00 0.00 70 1018.6